Time,TemperatureF,DewpointF,PressureIn,WindDirection,WindDirectionDegrees,WindSpeedMPH,WindSpeedGustMPH,Humidity,HourlyPrecipIn,Conditions,Clouds,dailyrainin,SoftwareType,DateUTC
2013-03-17 00:00:00,55.4,49.3,29.92,North,0,0.0,0.0,80,0.00,CLR,,0.00,WeatherDisplay:10.37,2013-03-17 04:00:00,
2013-03-17 00:05:00,55.4,49.3,29.92,North,0,0.0,0.0,80,0.00,CLR,,0.00,WeatherDisplay:10.37,2013-03-17 04:05:00,
2013-03-17 00:10:00,55.8,49.7,29.92,West,270,2.3,2.3,80,0.00,CLR,,0.00,WeatherDisplay:10.37,2013-03-17 04:10:00,
2013-03-17 00:15:00,56.3,50.2,29.92,West,270,0.0,0.0,80,0.00,CLR,,0.00,WeatherDisplay:10.37,2013-03-17 04:15:00,
2013-03-17 00:20:00,56.8,50.7,29.92,West,270,0.0,0.0,80,0.00,CLR,,0.00,WeatherDisplay:10.37,2013-03-17 04:20:00,
2013-03-17 00:25:00,57.0,50.6,29.92,West,270,0.0,0.0,79,0.00,CLR,,0.00,WeatherDisplay:10.37,2013-03-17 04:25:00,
2013-03-17 00:30:00,57.0,50.6,29.92,West,270,0.0,0.0,79,0.00,CLR,,0.00,WeatherDisplay:10.37,2013-03-17 04:30:00,
2013-03-17 00:35:00,56.8,50.4,29.92,West,270,0.0,0.0,79,0.00,CLR,,0.00,WeatherDisplay:10.37,2013-03-17 04:35:00,
2013-03-17 00:40:00,56.5,50.4,29.92,SW,225,0.0,0.0,80,0.00,CLR,,0.00,WeatherDisplay:10.37,2013-03-17 04:40:00,
2013-03-17 00:45:00,56.5,50.4,29.92,West,270,1.1,0.0,80,0.00,CLR,,0.00,WeatherDisplay:10.37,2013-03-17 04:45:00,
2013-03-17 00:50:00,56.5,50.7,29.92,NW,315,1.1,0.0,81,0.00,CLR,,0.00,WeatherDisplay:10.37,2013-03-17 04:50:00,
2013-03-17 00:55:00,56.5,50.7,29.92,West,270,0.0,0.0,81,0.00,CLR,,0.00,WeatherDisplay:10.37,2013-03-17 04:55:00,
2013-03-17 01:00:00,56.8,51.1,29.92,SW,225,4.6,0.0,81,0.00,CLR,,0.00,WeatherDisplay:10.37,2013-03-17 05:00:00,
2013-03-17 01:05:00,57.4,51.3,29.93,SW,225,0.0,0.0,80,0.00,CLR,,0.00,WeatherDisplay:10.37,2013-03-17 05:05:00,
2013-03-17 01:10:00,57.6,51.1,29.92,SW,225,0.0,0.0,79,0.00,CLR,,0.00,WeatherDisplay:10.37,2013-03-17 05:10:00,
2013-03-17 01:15:00,57.9,51.4,29.92,SW,225,0.0,0.0,79,0.00,CLR,,0.00,WeatherDisplay:10.37,2013-03-17 05:15:00,
2013-03-17 01:20:00,58.3,51.8,29.92,SW,225,1.1,0.0,79,0.00,CLR,,0.00,WeatherDisplay:10.37,2013-03-17 05:20:00,
2013-03-17 01:25:00,58.6,52.1,29.92,SW,225,2.3,2.3,79,0.00,CLR,,0.00,WeatherDisplay:10.37,2013-03-17 05:25:00,
2013-03-17 01:30:00,59.4,51.8,29.92,SW,225,2.3,0.0,76,0.00,CLR,,0.00,WeatherDisplay:10.37,2013-03-17 05:30:00,
2013-03-17 01:35:00,59.9,52.3,29.92,SW,225,2.3,0.0,76,0.00,CLR,,0.00,WeatherDisplay:10.37,2013-03-17 05:35:00,
2013-03-17 01:40:00,59.9,52.0,29.92,SW,225,1.1,0.0,75,0.00,CLR,,0.00,WeatherDisplay:10.37,2013-03-17 05:40:00,
2013-03-17 01:45:00,59.9,52.0,29.92,West,270,2.3,0.0,75,0.00,CLR,,0.00,WeatherDisplay:10.37,2013-03-17 05:45:00,
2013-03-17 01:50:00,59.5,51.6,29.91,West,270,0.0,0.0,75,0.00,CLR,,0.00,WeatherDisplay:10.37,2013-03-17 05:50:00,
2013-03-17 01:55:00,59.4,51.8,29.92,West,270,0.0,0.0,76,0.00,CLR,,0.00,WeatherDisplay:10.37,2013-03-17 05:55:00,
2013-03-17 02:00:00,59.2,51.6,29.91,SW,225,1.1,0.0,76,0.00,CLR,,0.00,WeatherDisplay:10.37,2013-03-17 06:00:00,
2013-03-17 02:05:00,59.2,51.6,29.92,SW,225,1.1,0.0,76,0.00,CLR,,0.00,WeatherDisplay:10.37,2013-03-17 06:05:00,
2013-03-17 02:10:00,59.0,51.4,29.92,SW,225,1.1,0.0,76,0.00,CLR,,0.00,WeatherDisplay:10.37,2013-03-17 06:10:00,
2013-03-17 02:15:00,59.0,51.4,29.92,West,270,0.0,0.0,76,0.00,CLR,,0.00,WeatherDisplay:10.37,2013-03-17 06:15:00,
2013-03-17 02:20:00,59.0,51.4,29.92,SW,225,2.3,0.0,76,0.00,CLR,,0.00,WeatherDisplay:10.37,2013-03-17 06:20:00,
2013-03-17 02:25:00,59.0,51.4,29.92,SW,225,0.0,0.0,76,0.00,CLR,,0.00,WeatherDisplay:10.37,2013-03-17 06:25:00,
2013-03-17 02:30:00,59.2,51.6,29.92,SW,225,0.0,0.0,76,0.00,CLR,,0.00,WeatherDisplay:10.37,2013-03-17 06:30:00,
2013-03-17 02:35:00,59.2,51.3,29.92,SW,225,0.0,0.0,75,0.00,CLR,,0.00,WeatherDisplay:10.37,2013-03-17 06:35:00,
2013-03-17 02:40:00,59.2,51.3,29.91,West,270,4.6,0.0,75,0.00,CLR,,0.00,WeatherDisplay:10.37,2013-03-17 06:40:00,
2013-03-17 02:45:00,59.2,51.3,29.91,West,270,0.0,0.0,75,0.00,CLR,,0.00,WeatherDisplay:10.37,2013-03-17 06:45:00,
2013-03-17 02:50:00,59.0,51.1,29.92,West,270,0.0,0.0,75,0.00,CLR,,0.00,WeatherDisplay:10.37,2013-03-17 06:50:00,
2013-03-17 02:55:00,58.6,51.4,29.91,SW,225,2.3,0.0,77,0.00,CLR,,0.00,WeatherDisplay:10.37,2013-03-17 06:55:00,
2013-03-17 03:00:00,58.5,51.3,29.91,SW,225,0.0,0.0,77,0.00,CLR,,0.00,WeatherDisplay:10.37,2013-03-17 07:00:00,
2013-03-17 03:05:00,59.0,51.1,29.91,SW,225,4.6,4.6,75,0.00,CLR,,0.00,WeatherDisplay:10.37,2013-03-17 07:05:00,
2013-03-17 03:10:00,59.4,51.4,29.91,SW,225,4.6,4.6,75,0.00,CLR,,0.00,WeatherDisplay:10.37,2013-03-17 07:10:00,
2013-03-17 03:15:00,59.5,51.2,29.91,SW,225,2.3,2.3,74,0.00,CLR,,0.00,WeatherDisplay:10.37,2013-03-17 07:15:00,
2013-03-17 03:20:00,59.2,50.9,29.91,South,180,2.3,0.0,74,0.00,CLR,,0.00,WeatherDisplay:10.37,2013-03-17 07:20:00,
2013-03-17 03:25:00,59.0,50.7,29.91,SW,225,5.8,5.8,74,0.00,CLR,,0.00,WeatherDisplay:10.37,2013-03-17 07:25:00,
2013-03-17 03:30:00,59.0,50.7,29.91,SW,225,0.0,0.0,74,0.00,CLR,,0.00,WeatherDisplay:10.37,2013-03-17 07:30:00,
2013-03-17 03:35:00,58.6,50.7,29.91,West,270,1.1,0.0,75,0.00,CLR,,0.00,WeatherDisplay:10.37,2013-03-17 07:35:00,
2013-03-17 03:40:00,58.3,50.4,29.91,West,270,0.0,0.0,75,0.00,CLR,,0.00,WeatherDisplay:10.37,2013-03-17 07:40:00,
2013-03-17 03:45:00,58.1,50.2,29.91,SW,225,2.3,2.3,75,0.00,CLR,,0.00,WeatherDisplay:10.37,2013-03-17 07:45:00,
2013-03-17 03:50:00,58.1,50.2,29.91,West,270,2.3,2.7,75,0.00,CLR,,0.00,WeatherDisplay:10.37,2013-03-17 07:50:00,
2013-03-17 03:55:00,58.3,50.4,29.91,SW,225,2.3,0.0,75,0.00,CLR,,0.00,WeatherDisplay:10.37,2013-03-17 07:55:00,
2013-03-17 04:00:00,58.1,50.2,29.91,South,180,2.3,2.3,75,0.00,CLR,,0.00,WeatherDisplay:10.37,2013-03-17 08:00:00,
2013-03-17 04:05:00,58.1,50.2,29.91,South,180,2.7,2.7,75,0.00,CLR,,0.00,WeatherDisplay:10.37,2013-03-17 08:05:00,
2013-03-17 04:10:00,56.8,49.7,29.91,West,270,1.1,0.0,77,0.00,CLR,,0.00,WeatherDisplay:10.37,2013-03-17 08:10:00,
2013-03-17 04:15:00,56.5,49.4,29.90,SW,225,0.0,0.0,77,0.00,CLR,,0.00,WeatherDisplay:10.37,2013-03-17 08:15:00,
2013-03-17 04:20:00,56.1,49.4,29.91,SW,225,0.0,0.0,78,0.00,CLR,,0.00,WeatherDisplay:10.37,2013-03-17 08:20:00,
2013-03-17 04:25:00,55.9,49.2,29.90,West,270,4.6,4.6,78,0.00,CLR,,0.00,WeatherDisplay:10.37,2013-03-17 08:25:00,
2013-03-17 04:30:00,56.1,49.4,29.90,West,270,1.1,0.0,78,0.00,CLR,,0.00,WeatherDisplay:10.37,2013-03-17 08:30:00,
2013-03-17 04:35:00,56.3,49.5,29.90,SW,225,4.6,0.0,78,0.00,CLR,,0.00,WeatherDisplay:10.37,2013-03-17 08:35:00,
2013-03-17 04:40:00,56.7,49.5,29.90,SW,225,5.8,5.8,77,0.00,CLR,,0.00,WeatherDisplay:10.37,2013-03-17 08:40:00,
2013-03-17 04:45:00,57.0,49.9,29.90,NW,315,0.0,0.0,77,0.00,CLR,,0.00,WeatherDisplay:10.37,2013-03-17 08:45:00,
2013-03-17 04:50:00,56.7,49.5,29.91,SW,225,5.8,5.8,77,0.00,CLR,,0.00,WeatherDisplay:10.37,2013-03-17 08:50:00,
2013-03-17 04:55:00,56.3,49.2,29.90,SW,225,2.3,2.3,77,0.00,CLR,,0.00,WeatherDisplay:10.37,2013-03-17 08:55:00,
2013-03-17 05:00:00,56.1,49.0,29.90,West,270,4.6,4.6,77,0.00,CLR,,0.00,WeatherDisplay:10.37,2013-03-17 09:00:00,
2013-03-17 05:05:00,56.3,49.2,29.90,West,270,4.6,4.6,77,0.00,CLR,,0.00,WeatherDisplay:10.37,2013-03-17 09:05:00,
2013-03-17 05:10:00,56.5,49.4,29.90,NW,315,1.1,0.0,77,0.00,CLR,,0.00,WeatherDisplay:10.37,2013-03-17 09:10:00,
2013-03-17 05:15:00,55.9,48.8,29.91,NW,315,2.3,0.0,77,0.00,CLR,,0.00,WeatherDisplay:10.37,2013-03-17 09:15:00,
2013-03-17 05:20:00,55.4,48.7,29.91,SW,225,4.6,4.6,78,0.00,CLR,,0.00,WeatherDisplay:10.37,2013-03-17 09:20:00,
2013-03-17 05:25:00,55.9,49.2,29.91,West,270,2.3,0.0,78,0.00,CLR,,0.00,WeatherDisplay:10.37,2013-03-17 09:25:00,
2013-03-17 05:30:00,56.3,49.5,29.91,South,180,4.6,4.6,78,0.00,CLR,,0.00,WeatherDisplay:10.37,2013-03-17 09:30:00,
2013-03-17 05:35:00,57.0,49.9,29.91,South,180,5.8,5.8,77,0.00,CLR,,0.00,WeatherDisplay:10.37,2013-03-17 09:35:00,
2013-03-17 05:40:00,57.4,49.9,29.91,NW,315,5.8,5.8,76,0.00,CLR,,0.00,WeatherDisplay:10.37,2013-03-17 09:40:00,
2013-03-17 05:45:00,57.7,49.9,29.92,SW,225,4.6,4.6,75,0.00,CLR,,0.00,WeatherDisplay:10.37,2013-03-17 09:45:00,
2013-03-17 05:50:00,57.7,49.9,29.92,SE,135,5.8,5.8,75,0.00,CLR,,0.00,WeatherDisplay:10.37,2013-03-17 09:50:00,
2013-03-17 05:55:00,57.7,49.9,29.92,West,270,2.3,2.3,75,0.00,CLR,,0.00,WeatherDisplay:10.37,2013-03-17 09:55:00,
2013-03-17 06:00:00,57.7,49.9,29.92,SW,225,4.6,4.6,75,0.00,CLR,,0.00,WeatherDisplay:10.37,2013-03-17 10:00:00,
2013-03-17 06:05:00,57.7,49.9,29.92,SW,225,4.6,4.6,75,0.00,CLR,,0.00,WeatherDisplay:10.37,2013-03-17 10:05:00,
2013-03-17 06:10:00,57.6,49.7,29.93,West,270,1.1,1.3,75,0.00,CLR,,0.00,WeatherDisplay:10.37,2013-03-17 10:10:00,
2013-03-17 06:15:00,57.0,49.5,29.93,SE,135,4.6,4.6,76,0.00,CLR,,0.00,WeatherDisplay:10.37,2013-03-17 10:15:00,
2013-03-17 06:20:00,57.2,49.3,29.93,SW,225,2.3,0.0,75,0.00,CLR,,0.00,WeatherDisplay:10.37,2013-03-17 10:20:00,
2013-03-17 06:25:00,57.0,49.5,29.93,SW,225,5.8,5.8,76,0.00,CLR,,0.00,WeatherDisplay:10.37,2013-03-17 10:25:00,
2013-03-17 06:30:00,56.8,49.4,29.93,NW,315,2.3,0.0,76,0.00,CLR,,0.00,WeatherDisplay:10.37,2013-03-17 10:30:00,
2013-03-17 06:35:00,56.3,48.8,29.94,NW,315,0.0,0.0,76,0.00,CLR,,0.00,WeatherDisplay:10.37,2013-03-17 10:35:00,
2013-03-17 06:40:00,55.8,48.3,29.94,East,90,1.1,0.0,76,0.00,CLR,,0.00,WeatherDisplay:10.37,2013-03-17 10:40:00,
2013-03-17 06:45:00,55.4,48.3,29.94,SW,225,4.6,4.6,77,0.00,CLR,,0.00,WeatherDisplay:10.37,2013-03-17 10:45:00,
2013-03-17 06:50:00,55.8,49.0,29.94,South,180,6.9,6.9,78,0.00,CLR,,0.00,WeatherDisplay:10.37,2013-03-17 10:50:00,
2013-03-17 06:55:00,56.5,49.4,29.93,South,180,4.6,4.6,77,0.00,CLR,,0.00,WeatherDisplay:10.37,2013-03-17 10:55:00,
2013-03-17 07:00:00,56.7,49.5,29.94,SW,225,4.6,0.0,77,0.00,CLR,,0.00,WeatherDisplay:10.37,2013-03-17 11:00:00,
2013-03-17 07:05:00,56.7,49.5,29.94,SW,225,5.8,5.8,77,0.00,CLR,,0.00,WeatherDisplay:10.37,2013-03-17 11:05:00,
2013-03-17 07:10:00,56.3,49.2,29.95,SW,225,5.8,5.8,77,0.00,CLR,,0.00,WeatherDisplay:10.37,2013-03-17 11:10:00,
2013-03-17 07:15:00,56.3,49.2,29.95,SW,225,4.6,4.6,77,0.00,CLR,,0.00,WeatherDisplay:10.37,2013-03-17 11:15:00,
2013-03-17 07:20:00,56.3,49.2,29.95,SW,225,4.6,4.6,77,0.00,CLR,,0.00,WeatherDisplay:10.37,2013-03-17 11:20:00,
2013-03-17 07:25:00,56.3,49.2,29.95,NW,315,4.6,4.6,77,0.00,CLR,,0.00,WeatherDisplay:10.37,2013-03-17 11:25:00,
2013-03-17 07:30:00,56.1,49.0,29.95,West,270,4.6,4.6,77,0.00,CLR,,0.00,WeatherDisplay:10.37,2013-03-17 11:30:00,
2013-03-17 07:35:00,55.9,48.8,29.95,SW,225,2.3,2.7,77,0.00,CLR,,0.00,WeatherDisplay:10.37,2013-03-17 11:35:00,
2013-03-17 07:40:00,55.9,49.2,29.95,SW,225,4.6,4.6,78,0.00,CLR,,0.00,WeatherDisplay:10.37,2013-03-17 11:40:00,
2013-03-17 07:45:00,55.9,49.2,29.95,West,270,2.3,2.3,78,0.00,CLR,,0.00,WeatherDisplay:10.37,2013-03-17 11:45:00,
2013-03-17 07:50:00,55.9,49.2,29.95,SW,225,2.3,2.3,78,0.00,CLR,,0.00,WeatherDisplay:10.37,2013-03-17 11:50:00,
2013-03-17 07:55:00,55.9,49.5,29.95,West,270,4.6,4.6,79,0.00,CLR,,0.00,WeatherDisplay:10.37,2013-03-17 11:55:00,
2013-03-17 08:00:00,55.8,49.3,29.95,SW,225,5.8,5.8,79,0.00,CLR,,0.00,WeatherDisplay:10.37,2013-03-17 12:00:00,
2013-03-17 08:05:00,55.9,49.5,29.96,South,180,5.8,5.8,79,0.00,CLR,,0.00,WeatherDisplay:10.37,2013-03-17 12:05:00,
2013-03-17 08:10:00,55.9,49.5,29.96,South,180,5.8,5.8,79,0.00,CLR,,0.00,WeatherDisplay:10.37,2013-03-17 12:10:00,
2013-03-17 08:15:00,56.1,49.7,29.96,South,180,5.8,5.8,79,0.00,CLR,,0.00,WeatherDisplay:10.37,2013-03-17 12:15:00,
2013-03-17 08:20:00,56.1,50.0,29.96,SW,225,5.8,5.8,80,0.00,CLR,,0.00,WeatherDisplay:10.37,2013-03-17 12:20:00,
2013-03-17 08:25:00,56.3,50.2,29.96,SE,135,8.1,8.1,80,0.00,CLR,,0.00,WeatherDisplay:10.37,2013-03-17 12:25:00,
2013-03-17 08:30:00,56.5,50.4,29.96,South,180,4.6,4.6,80,0.00,CLR,,0.00,WeatherDisplay:10.37,2013-03-17 12:30:00,
2013-03-17 08:35:00,56.8,50.7,29.96,SW,225,10.4,10.4,80,0.00,CLR,,0.00,WeatherDisplay:10.37,2013-03-17 12:35:00,
2013-03-17 08:40:00,57.2,50.7,29.96,South,180,6.9,6.9,79,0.00,CLR,,0.00,WeatherDisplay:10.37,2013-03-17 12:40:00,
2013-03-17 08:45:00,57.7,51.3,29.96,South,180,6.9,6.9,79,0.00,CLR,,0.00,WeatherDisplay:10.37,2013-03-17 12:45:00,
2013-03-17 08:50:00,58.1,51.6,29.96,SW,225,6.9,6.9,79,0.00,CLR,,0.00,WeatherDisplay:10.37,2013-03-17 12:50:00,
2013-03-17 08:55:00,58.5,52.0,29.96,West,270,4.6,4.6,79,0.00,CLR,,0.00,WeatherDisplay:10.37,2013-03-17 12:55:00,
2013-03-17 09:00:00,58.8,52.3,29.96,SW,225,5.8,5.8,79,0.00,CLR,,0.00,WeatherDisplay:10.37,2013-03-17 13:00:00,
2013-03-17 09:05:00,59.2,52.3,29.97,SW,225,10.4,10.4,78,0.00,CLR,,0.00,WeatherDisplay:10.37,2013-03-17 13:05:00,
2013-03-17 09:10:00,59.5,52.3,29.97,South,180,10.4,10.4,77,0.00,CLR,,0.00,WeatherDisplay:10.37,2013-03-17 13:10:00,
2013-03-17 09:15:00,59.9,52.7,29.97,SW,225,10.4,10.4,77,0.00,CLR,,0.00,WeatherDisplay:10.37,2013-03-17 13:15:00,
2013-03-17 09:20:00,60.3,53.0,29.97,SW,225,10.4,10.4,77,0.00,CLR,,0.00,WeatherDisplay:10.37,2013-03-17 13:20:00,
2013-03-17 09:25:00,60.6,53.4,29.97,SSW,202,12.7,12.7,77,0.00,CLR,,0.00,WeatherDisplay:10.37,2013-03-17 13:25:00,
2013-03-17 09:30:00,60.8,52.8,29.97,South,180,11.5,11.5,75,0.00,CLR,,0.00,WeatherDisplay:10.37,2013-03-17 13:30:00,
2013-03-17 09:35:00,61.0,53.0,29.97,SSW,202,11.5,11.5,75,0.00,CLR,,0.00,WeatherDisplay:10.37,2013-03-17 13:35:00,
2013-03-17 09:40:00,61.2,53.2,29.97,SW,225,11.4,11.4,75,0.00,CLR,,0.00,WeatherDisplay:10.37,2013-03-17 13:40:00,
2013-03-17 09:45:00,61.3,53.3,29.97,SW,225,13.8,13.8,75,0.00,CLR,,0.00,WeatherDisplay:10.37,2013-03-17 13:45:00,
2013-03-17 09:50:00,61.3,53.3,29.97,SSW,202,6.9,6.9,75,0.00,CLR,,0.00,WeatherDisplay:10.37,2013-03-17 13:50:00,
2013-03-17 09:55:00,61.5,53.5,29.97,SW,225,10.4,10.4,75,0.00,CLR,,0.00,WeatherDisplay:10.37,2013-03-17 13:55:00,
2013-03-17 10:00:00,62.1,54.0,29.97,SW,225,6.9,6.9,75,0.00,CLR,,0.00,WeatherDisplay:10.37,2013-03-17 14:00:00,
2013-03-17 10:05:00,62.6,53.8,29.97,South,180,12.7,12.7,73,0.00,CLR,,0.00,WeatherDisplay:10.37,2013-03-17 14:05:00,
2013-03-17 10:10:00,62.6,53.8,29.97,SW,225,12.7,12.7,73,0.00,CLR,,0.00,WeatherDisplay:10.37,2013-03-17 14:10:00,
2013-03-17 10:15:00,62.6,53.8,29.97,SW,225,11.5,11.5,73,0.00,CLR,,0.00,WeatherDisplay:10.37,2013-03-17 14:15:00,
2013-03-17 10:20:00,62.2,53.8,29.97,South,180,10.4,10.4,74,0.00,CLR,,0.00,WeatherDisplay:10.37,2013-03-17 14:20:00,
2013-03-17 10:25:00,62.2,54.2,29.97,South,180,10.4,10.4,75,0.00,CLR,,0.00,WeatherDisplay:10.37,2013-03-17 14:25:00,
2013-03-17 10:30:00,62.2,54.2,29.97,South,180,12.7,12.7,75,0.00,CLR,,0.00,WeatherDisplay:10.37,2013-03-17 14:30:00,
2013-03-17 10:35:00,62.2,54.2,29.98,South,180,8.1,8.1,75,0.00,CLR,,0.00,WeatherDisplay:10.37,2013-03-17 14:35:00,
2013-03-17 10:40:00,62.2,54.2,29.97,SSW,202,12.7,12.7,75,0.00,CLR,,0.00,WeatherDisplay:10.37,2013-03-17 14:40:00,
2013-03-17 10:45:00,62.8,54.7,29.97,SE,135,6.9,6.9,75,0.00,CLR,,0.00,WeatherDisplay:10.37,2013-03-17 14:45:00,
2013-03-17 10:50:00,63.5,55.1,29.97,South,180,6.9,6.9,74,0.00,CLR,,0.00,WeatherDisplay:10.37,2013-03-17 14:50:00,
2013-03-17 10:55:00,64.0,55.6,29.97,SSW,202,10.4,10.4,74,0.00,CLR,,0.00,WeatherDisplay:10.37,2013-03-17 14:55:00,
2013-03-17 11:00:00,64.4,55.9,29.97,SSW,202,12.7,12.7,74,0.00,CLR,,0.00,WeatherDisplay:10.37,2013-03-17 15:00:00,
2013-03-17 11:05:00,65.3,56.0,29.97,SW,225,11.5,11.5,72,0.00,CLR,,0.00,WeatherDisplay:10.37,2013-03-17 15:05:00,
2013-03-17 11:10:00,65.7,56.0,29.97,North,0,8.1,8.1,71,0.00,CLR,,0.00,WeatherDisplay:10.37,2013-03-17 15:10:00,
2013-03-17 11:15:00,66.4,56.3,29.97,South,180,13.8,13.8,70,0.00,CLR,,0.00,WeatherDisplay:10.37,2013-03-17 15:15:00,
2013-03-17 11:20:00,66.2,55.3,29.97,South,180,8.1,8.1,68,0.00,CLR,,0.00,WeatherDisplay:10.37,2013-03-17 15:20:00,
2013-03-17 11:25:00,65.8,55.8,29.97,West,270,5.8,5.8,70,0.00,CLR,,0.00,WeatherDisplay:10.37,2013-03-17 15:25:00,
2013-03-17 11:30:00,66.2,55.7,29.97,South,180,8.4,8.4,69,0.00,CLR,,0.00,WeatherDisplay:10.37,2013-03-17 15:30:00,
2013-03-17 11:35:00,66.4,55.9,29.96,South,180,11.5,11.5,69,0.00,CLR,,0.00,WeatherDisplay:10.37,2013-03-17 15:35:00,
2013-03-17 11:40:00,66.9,56.4,29.96,South,180,16.1,16.1,69,0.00,CLR,,0.00,WeatherDisplay:10.37,2013-03-17 15:40:00,
2013-03-17 11:45:00,67.8,56.5,29.96,SW,225,12.7,12.7,67,0.00,CLR,,0.00,WeatherDisplay:10.37,2013-03-17 15:45:00,
2013-03-17 11:50:00,67.8,56.5,29.96,West,270,18.4,18.4,67,0.00,CLR,,0.00,WeatherDisplay:10.37,2013-03-17 15:50:00,
2013-03-17 11:55:00,68.4,56.6,29.96,WNW,292,11.5,11.5,66,0.00,CLR,,0.00,WeatherDisplay:10.37,2013-03-17 15:55:00,
2013-03-17 12:00:00,69.3,57.4,29.96,NW,315,13.8,13.8,66,0.00,CLR,,0.00,WeatherDisplay:10.37,2013-03-17 16:00:00,
2013-03-17 12:05:00,70.0,57.2,29.96,SW,225,11.5,11.5,64,0.00,CLR,,0.00,WeatherDisplay:10.37,2013-03-17 16:05:00,
2013-03-17 12:10:00,70.2,57.0,29.95,SW,225,10.4,10.4,63,0.00,CLR,,0.00,WeatherDisplay:10.37,2013-03-17 16:10:00,
2013-03-17 12:15:00,69.4,56.7,29.95,SW,225,17.3,17.3,64,0.00,CLR,,0.00,WeatherDisplay:10.37,2013-03-17 16:15:00,
2013-03-17 12:20:00,69.6,57.3,29.95,South,180,8.1,8.1,65,0.00,CLR,,0.00,WeatherDisplay:10.37,2013-03-17 16:20:00,
2013-03-17 12:25:00,70.0,56.8,29.95,SW,225,10.4,10.4,63,0.00,CLR,,0.00,WeatherDisplay:10.37,2013-03-17 16:25:00,
2013-03-17 12:30:00,70.7,57.5,29.95,West,270,11.5,11.5,63,0.00,CLR,,0.00,WeatherDisplay:10.37,2013-03-17 16:30:00,
2013-03-17 12:35:00,71.4,57.7,29.95,SW,225,12.7,12.7,62,0.00,CLR,,0.00,WeatherDisplay:10.37,2013-03-17 16:35:00,
2013-03-17 12:40:00,71.1,57.4,29.95,SW,225,12.7,12.7,62,0.00,CLR,,0.00,WeatherDisplay:10.37,2013-03-17 16:40:00,
2013-03-17 12:45:00,71.1,57.4,29.94,South,180,12.7,12.7,62,0.00,CLR,,0.00,WeatherDisplay:10.37,2013-03-17 16:45:00,
2013-03-17 12:50:00,71.2,58.0,29.94,South,180,21.9,21.9,63,0.00,CLR,,0.00,WeatherDisplay:10.37,2013-03-17 16:50:00,
2013-03-17 12:55:00,72.0,58.2,29.95,WSW,248,11.5,11.5,62,0.00,CLR,,0.00,WeatherDisplay:10.37,2013-03-17 16:55:00,
2013-03-17 13:00:00,72.1,57.9,29.94,SW,225,11.5,11.5,61,0.00,CLR,,0.00,WeatherDisplay:10.37,2013-03-17 17:00:00,
2013-03-17 13:05:00,72.7,58.5,29.94,SW,225,17.3,17.3,61,0.00,CLR,,0.00,WeatherDisplay:10.37,2013-03-17 17:05:00,
2013-03-17 13:10:00,73.0,58.3,29.93,SW,225,16.1,16.1,60,0.00,CLR,,0.00,WeatherDisplay:10.37,2013-03-17 17:10:00,
2013-03-17 13:15:00,73.6,57.9,29.93,SW,225,13.8,13.8,58,0.00,CLR,,0.00,WeatherDisplay:10.37,2013-03-17 17:15:00,
2013-03-17 13:20:00,73.6,57.9,29.93,South,180,18.4,18.4,58,0.00,CLR,,0.00,WeatherDisplay:10.37,2013-03-17 17:20:00,
2013-03-17 13:25:00,73.2,58.0,29.93,South,180,19.6,19.6,59,0.00,CLR,,0.00,WeatherDisplay:10.37,2013-03-17 17:25:00,
2013-03-17 13:30:00,73.0,57.9,29.93,SW,225,13.8,13.8,59,0.00,CLR,,0.00,WeatherDisplay:10.37,2013-03-17 17:30:00,
2013-03-17 13:35:00,72.9,57.2,29.93,SW,225,17.3,17.3,58,0.00,CLR,,0.00,WeatherDisplay:10.37,2013-03-17 17:35:00,
2013-03-17 13:40:00,71.2,56.2,29.93,South,180,11.5,11.5,59,0.00,CLR,,0.00,WeatherDisplay:10.37,2013-03-17 17:40:00,
2013-03-17 13:45:00,71.1,56.5,29.93,SW,225,16.1,16.1,60,0.00,CLR,,0.00,WeatherDisplay:10.37,2013-03-17 17:45:00,
2013-03-17 13:50:00,70.3,56.7,29.92,SW,225,11.5,11.5,62,0.00,CLR,,0.00,WeatherDisplay:10.37,2013-03-17 17:50:00,
2013-03-17 13:55:00,70.3,56.7,29.92,SW,225,16.1,16.1,62,0.00,CLR,,0.00,WeatherDisplay:10.37,2013-03-17 17:55:00,
2013-03-17 14:00:00,70.2,56.5,29.91,SW,225,11.5,11.5,62,0.00,CLR,,0.00,WeatherDisplay:10.37,2013-03-17 18:00:00,
2013-03-17 14:05:00,71.1,57.4,29.91,SW,225,11.5,11.5,62,0.00,CLR,,0.00,WeatherDisplay:10.37,2013-03-17 18:05:00,
2013-03-17 14:10:00,72.5,57.8,29.91,South,180,11.5,11.5,60,0.00,CLR,,0.00,WeatherDisplay:10.37,2013-03-17 18:10:00,
2013-03-17 14:15:00,72.7,57.0,29.91,SW,225,18.4,18.4,58,0.00,CLR,,0.00,WeatherDisplay:10.37,2013-03-17 18:15:00,
2013-03-17 14:20:00,72.5,57.4,29.90,SW,225,12.7,12.7,59,0.00,CLR,,0.00,WeatherDisplay:10.37,2013-03-17 18:20:00,
2013-03-17 14:25:00,72.9,58.2,29.90,SW,225,23.0,23.0,60,0.00,CLR,,0.00,WeatherDisplay:10.37,2013-03-17 18:25:00,
2013-03-17 14:30:00,72.7,57.0,29.90,South,180,16.1,16.1,58,0.00,CLR,,0.00,WeatherDisplay:10.37,2013-03-17 18:30:00,
2013-03-17 14:35:00,72.0,56.8,29.89,West,270,6.9,6.9,59,0.00,CLR,,0.00,WeatherDisplay:10.37,2013-03-17 18:35:00,
2013-03-17 14:40:00,72.9,56.7,29.90,SW,225,13.8,13.8,57,0.00,CLR,,0.00,WeatherDisplay:10.37,2013-03-17 18:40:00,
2013-03-17 14:45:00,73.4,56.2,29.89,SW,225,16.1,16.1,55,0.00,CLR,,0.00,WeatherDisplay:10.37,2013-03-17 18:45:00,
2013-03-17 14:50:00,72.3,54.7,29.89,SW,225,13.8,13.8,54,0.00,CLR,,0.00,WeatherDisplay:10.37,2013-03-17 18:50:00,
2013-03-17 14:55:00,72.0,54.9,29.89,SW,225,21.9,21.9,55,0.00,CLR,,0.00,WeatherDisplay:10.37,2013-03-17 18:55:00,
2013-03-17 15:00:00,72.7,55.6,29.89,SE,135,12.7,12.7,55,0.00,CLR,,0.00,WeatherDisplay:10.37,2013-03-17 19:00:00,
2013-03-17 15:05:00,72.5,54.9,29.88,SW,225,18.4,18.4,54,0.00,CLR,,0.00,WeatherDisplay:10.37,2013-03-17 19:05:00,
2013-03-17 15:10:00,72.0,54.9,29.89,SW,225,16.1,16.1,55,0.00,CLR,,0.00,WeatherDisplay:10.37,2013-03-17 19:10:00,
2013-03-17 15:15:00,71.4,55.4,29.89,SW,225,16.1,16.1,57,0.00,CLR,,0.00,WeatherDisplay:10.37,2013-03-17 19:15:00,
2013-03-17 15:20:00,71.8,54.7,29.89,SW,225,19.6,19.6,55,0.00,CLR,,0.00,WeatherDisplay:10.37,2013-03-17 19:20:00,
2013-03-17 15:25:00,71.8,54.7,29.89,SSW,202,6.9,6.9,55,0.00,CLR,,0.00,WeatherDisplay:10.37,2013-03-17 19:25:00,
2013-03-17 15:30:00,72.0,54.9,29.89,South,180,10.4,10.4,55,0.00,CLR,,0.00,WeatherDisplay:10.37,2013-03-17 19:30:00,
2013-03-17 15:35:00,72.0,54.9,29.89,SW,225,17.3,17.3,55,0.00,CLR,,0.00,WeatherDisplay:10.37,2013-03-17 19:35:00,
2013-03-17 15:40:00,71.4,54.9,29.88,SW,225,11.5,11.5,56,0.00,CLR,,0.00,WeatherDisplay:10.37,2013-03-17 19:40:00,
2013-03-17 15:45:00,71.4,54.9,29.88,SW,225,21.9,21.9,56,0.00,CLR,,0.00,WeatherDisplay:10.37,2013-03-17 19:45:00,
2013-03-17 15:50:00,71.6,55.1,29.88,West,270,8.1,8.1,56,0.00,CLR,,0.00,WeatherDisplay:10.37,2013-03-17 19:50:00,
2013-03-17 15:55:00,71.8,54.2,29.88,SSW,202,16.1,16.1,54,0.00,CLR,,0.00,WeatherDisplay:10.37,2013-03-17 19:55:00,
2013-03-17 16:00:00,71.6,54.6,29.88,SW,225,10.4,10.4,55,0.00,CLR,,0.00,WeatherDisplay:10.37,2013-03-17 20:00:00,
2013-03-17 16:05:00,71.8,54.2,29.88,West,270,21.9,21.9,54,0.00,CLR,,0.00,WeatherDisplay:10.37,2013-03-17 20:05:00,
2013-03-17 16:10:00,71.6,54.1,29.88,SW,225,13.8,13.8,54,0.00,CLR,,0.00,WeatherDisplay:10.37,2013-03-17 20:10:00,
2013-03-17 16:15:00,71.2,54.2,29.87,NW,315,21.9,21.9,55,0.00,CLR,,0.00,WeatherDisplay:10.37,2013-03-17 20:15:00,
2013-03-17 16:20:00,71.2,54.2,29.88,SE,135,19.6,19.6,55,0.00,CLR,,0.00,WeatherDisplay:10.37,2013-03-17 20:20:00,
2013-03-17 16:25:00,71.1,53.6,29.88,SW,225,17.3,17.3,54,0.00,CLR,,0.00,WeatherDisplay:10.37,2013-03-17 20:25:00,
2013-03-17 16:30:00,70.9,53.4,29.88,SSW,202,13.8,13.8,54,0.00,CLR,,0.00,WeatherDisplay:10.37,2013-03-17 20:30:00,
2013-03-17 16:35:00,71.1,53.6,29.87,SSW,202,11.5,11.5,54,0.00,CLR,,0.00,WeatherDisplay:10.37,2013-03-17 20:35:00,
2013-03-17 16:40:00,71.6,53.6,29.87,West,270,11.5,11.5,53,0.00,CLR,,0.00,WeatherDisplay:10.37,2013-03-17 20:40:00,
2013-03-17 16:45:00,71.8,53.2,29.87,SW,225,10.4,10.4,52,0.00,CLR,,0.00,WeatherDisplay:10.37,2013-03-17 20:45:00,
2013-03-17 16:50:00,71.8,53.2,29.88,West,270,13.8,13.8,52,0.00,CLR,,0.00,WeatherDisplay:10.37,2013-03-17 20:50:00,
2013-03-17 16:55:00,71.8,53.2,29.87,SE,135,17.3,17.3,52,0.00,CLR,,0.00,WeatherDisplay:10.37,2013-03-17 20:55:00,
2013-03-17 17:00:00,71.6,53.0,29.87,South,180,12.8,12.8,52,0.00,CLR,,0.00,WeatherDisplay:10.37,2013-03-17 21:00:00,
2013-03-17 17:05:00,71.1,52.5,29.88,SW,225,23.0,23.0,52,0.00,CLR,,0.00,WeatherDisplay:10.37,2013-03-17 21:05:00,
2013-03-17 17:10:00,70.9,52.4,29.88,SW,225,13.8,13.8,52,0.00,CLR,,0.00,WeatherDisplay:10.37,2013-03-17 21:10:00,
2013-03-17 17:15:00,70.9,52.4,29.87,SW,225,12.7,12.7,52,0.00,CLR,,0.00,WeatherDisplay:10.37,2013-03-17 21:15:00,
2013-03-17 17:20:00,71.6,52.5,29.87,West,270,17.3,17.3,51,0.00,CLR,,0.00,WeatherDisplay:10.37,2013-03-17 21:20:00,
2013-03-17 17:25:00,71.1,52.0,29.87,NW,315,17.3,17.3,51,0.00,CLR,,0.00,WeatherDisplay:10.37,2013-03-17 21:25:00,
2013-03-17 17:30:00,71.2,52.2,29.87,South,180,13.8,13.8,51,0.00,CLR,,0.00,WeatherDisplay:10.37,2013-03-17 21:30:00,
2013-03-17 17:35:00,70.7,51.1,29.87,SW,225,13.8,13.8,50,0.00,CLR,,0.00,WeatherDisplay:10.37,2013-03-17 21:35:00,
2013-03-17 17:40:00,70.3,51.3,29.87,SW,225,13.8,13.8,51,0.00,CLR,,0.00,WeatherDisplay:10.37,2013-03-17 21:40:00,
2013-03-17 17:45:00,70.2,51.2,29.87,SW,225,13.8,13.8,51,0.00,CLR,,0.00,WeatherDisplay:10.37,2013-03-17 21:45:00,
2013-03-17 17:50:00,70.2,51.7,29.87,South,180,12.7,12.7,52,0.00,CLR,,0.00,WeatherDisplay:10.37,2013-03-17 21:50:00,
2013-03-17 17:55:00,70.0,51.0,29.87,SW,225,16.1,16.1,51,0.00,CLR,,0.00,WeatherDisplay:10.37,2013-03-17 21:55:00,
2013-03-17 18:00:00,70.0,51.5,29.88,SSW,202,11.5,11.5,52,0.00,CLR,,0.00,WeatherDisplay:10.37,2013-03-17 22:00:00,
2013-03-17 18:05:00,69.8,51.4,29.87,SE,135,13.8,13.8,52,0.00,CLR,,0.00,WeatherDisplay:10.37,2013-03-17 22:05:00,
2013-03-17 18:10:00,69.8,51.9,29.87,SW,225,13.8,13.8,53,0.00,CLR,,0.00,WeatherDisplay:10.37,2013-03-17 22:10:00,
2013-03-17 18:15:00,70.0,53.1,29.87,SW,225,11.5,11.5,55,0.00,CLR,,0.00,WeatherDisplay:10.37,2013-03-17 22:15:00,
2013-03-17 18:20:00,69.6,54.2,29.87,South,180,13.8,13.8,58,0.00,CLR,,0.00,WeatherDisplay:10.37,2013-03-17 22:20:00,
2013-03-17 18:25:00,69.4,54.9,29.87,SSW,202,11.5,11.5,60,0.00,CLR,,0.00,WeatherDisplay:10.37,2013-03-17 22:25:00,
2013-03-17 18:30:00,69.1,54.6,29.87,SSW,202,10.4,10.4,60,0.00,CLR,,0.00,WeatherDisplay:10.37,2013-03-17 22:30:00,
2013-03-17 18:35:00,68.9,54.9,29.87,South,180,10.4,10.4,61,0.00,CLR,,0.00,WeatherDisplay:10.37,2013-03-17 22:35:00,
2013-03-17 18:40:00,68.9,54.9,29.87,SW,225,6.9,6.9,61,0.00,CLR,,0.00,WeatherDisplay:10.37,2013-03-17 22:40:00,
2013-03-17 18:45:00,68.7,55.2,29.87,SW,225,6.9,6.9,62,0.00,CLR,,0.00,WeatherDisplay:10.37,2013-03-17 22:45:00,
2013-03-17 18:50:00,68.4,54.8,29.87,SE,135,13.8,13.8,62,0.00,CLR,,0.00,WeatherDisplay:10.37,2013-03-17 22:50:00,
2013-03-17 18:55:00,68.0,54.9,29.87,South,180,11.5,11.5,63,0.00,CLR,,0.00,WeatherDisplay:10.37,2013-03-17 22:55:00,
2013-03-17 19:00:00,67.8,55.2,29.87,South,180,8.1,8.1,64,0.00,CLR,,0.00,WeatherDisplay:10.37,2013-03-17 23:00:00,
2013-03-17 19:05:00,67.6,55.0,29.87,SW,225,6.9,6.9,64,0.00,CLR,,0.00,WeatherDisplay:10.37,2013-03-17 23:05:00,
2013-03-17 19:10:00,67.5,54.9,29.87,South,180,6.9,6.9,64,0.00,CLR,,0.00,WeatherDisplay:10.37,2013-03-17 23:10:00,
2013-03-17 19:15:00,67.3,54.7,29.88,SW,225,4.6,4.6,64,0.00,CLR,,0.00,WeatherDisplay:10.37,2013-03-17 23:15:00,
2013-03-17 19:20:00,67.1,54.5,29.88,SW,225,8.1,8.1,64,0.00,CLR,,0.00,WeatherDisplay:10.37,2013-03-17 23:20:00,
2013-03-17 19:25:00,66.9,54.8,29.88,SE,135,4.6,4.6,65,0.00,CLR,,0.00,WeatherDisplay:10.37,2013-03-17 23:25:00,
2013-03-17 19:30:00,66.7,54.6,29.88,SW,225,5.8,5.8,65,0.00,CLR,,0.00,WeatherDisplay:10.37,2013-03-17 23:30:00,
2013-03-17 19:35:00,66.6,54.4,29.88,SW,225,4.6,4.6,65,0.00,CLR,,0.00,WeatherDisplay:10.37,2013-03-17 23:35:00,
2013-03-17 19:40:00,66.2,54.1,29.88,SW,225,5.8,5.8,65,0.00,CLR,,0.00,WeatherDisplay:10.37,2013-03-17 23:40:00,
2013-03-17 19:45:00,65.8,54.6,29.89,SW,225,8.1,0.0,67,0.00,CLR,,0.00,WeatherDisplay:10.37,2013-03-17 23:45:00,
2013-03-17 19:50:00,65.7,54.4,29.89,ESE,112,2.3,2.7,67,0.00,CLR,,0.00,WeatherDisplay:10.37,2013-03-17 23:50:00,
2013-03-17 19:55:00,65.3,54.1,29.89,South,180,5.7,5.7,67,0.00,CLR,,0.00,WeatherDisplay:10.37,2013-03-17 23:55:00,
2013-03-17 20:00:00,64.9,53.7,29.89,South,180,8.1,8.1,67,0.00,CLR,,0.00,WeatherDisplay:10.37,2013-03-18 00:00:00,
2013-03-17 20:05:00,64.8,53.5,29.89,SW,225,6.9,6.9,67,0.00,CLR,,0.00,WeatherDisplay:10.37,2013-03-18 00:05:00,
2013-03-17 20:10:00,64.6,53.4,29.88,South,180,5.8,5.8,67,0.00,CLR,,0.00,WeatherDisplay:10.37,2013-03-18 00:10:00,
2013-03-17 20:15:00,64.4,53.2,29.89,SE,135,5.8,5.8,67,0.00,CLR,,0.00,WeatherDisplay:10.37,2013-03-18 00:15:00,
2013-03-17 20:20:00,64.2,53.4,29.89,SW,225,5.8,5.8,68,0.00,CLR,,0.00,WeatherDisplay:10.37,2013-03-18 00:20:00,
2013-03-17 20:25:00,64.0,53.3,29.89,East,90,4.6,4.6,68,0.00,CLR,,0.00,WeatherDisplay:10.37,2013-03-18 00:25:00,
2013-03-17 20:30:00,63.9,53.1,29.89,South,180,6.9,6.9,68,0.00,CLR,,0.00,WeatherDisplay:10.37,2013-03-18 00:30:00,
2013-03-17 20:35:00,63.5,52.7,29.89,SW,225,4.6,4.6,68,0.00,CLR,,0.00,WeatherDisplay:10.37,2013-03-18 00:35:00,
2013-03-17 20:40:00,63.3,52.6,29.89,SW,225,4.6,4.6,68,0.00,CLR,,0.00,WeatherDisplay:10.37,2013-03-18 00:40:00,
2013-03-17 20:45:00,63.0,52.6,29.89,SW,225,2.3,0.0,69,0.00,CLR,,0.00,WeatherDisplay:10.37,2013-03-18 00:45:00,
2013-03-17 20:50:00,62.8,52.5,29.89,SW,225,1.1,0.0,69,0.00,CLR,,0.00,WeatherDisplay:10.37,2013-03-18 00:50:00,
2013-03-17 20:55:00,62.2,52.7,29.89,South,180,1.1,1.3,71,0.00,CLR,,0.00,WeatherDisplay:10.37,2013-03-18 00:55:00,
2013-03-17 21:00:00,61.7,52.2,29.90,SW,225,2.3,0.0,71,0.00,CLR,,0.00,WeatherDisplay:10.37,2013-03-18 01:00:00,
2013-03-17 21:05:00,61.0,51.9,29.90,South,180,2.3,0.0,72,0.00,CLR,,0.00,WeatherDisplay:10.37,2013-03-18 01:05:00,
2013-03-17 21:10:00,61.0,51.9,29.90,East,90,5.8,5.8,72,0.00,CLR,,0.00,WeatherDisplay:10.37,2013-03-18 01:10:00,
2013-03-17 21:15:00,61.3,52.2,29.90,South,180,4.6,4.6,72,0.00,CLR,,0.00,WeatherDisplay:10.37,2013-03-18 01:15:00,
2013-03-17 21:20:00,61.5,52.4,29.89,SW,225,4.6,4.6,72,0.00,CLR,,0.00,WeatherDisplay:10.37,2013-03-18 01:20:00,
2013-03-17 21:25:00,61.5,52.4,29.89,South,180,4.6,4.6,72,0.00,CLR,,0.00,WeatherDisplay:10.37,2013-03-18 01:25:00,
2013-03-17 21:30:00,61.7,52.6,29.89,SW,225,4.6,4.6,72,0.00,CLR,,0.00,WeatherDisplay:10.37,2013-03-18 01:30:00,
2013-03-17 21:35:00,61.7,52.6,29.89,SW,225,2.3,2.3,72,0.00,CLR,,0.00,WeatherDisplay:10.37,2013-03-18 01:35:00,
2013-03-17 21:40:00,61.2,52.1,29.89,South,180,2.3,2.3,72,0.00,CLR,,0.00,WeatherDisplay:10.37,2013-03-18 01:40:00,
2013-03-17 21:45:00,61.0,51.9,29.89,West,270,2.3,0.0,72,0.00,CLR,,0.00,WeatherDisplay:10.37,2013-03-18 01:45:00,
2013-03-17 21:50:00,60.4,51.7,29.90,SW,225,0.0,0.0,73,0.00,CLR,,0.00,WeatherDisplay:10.37,2013-03-18 01:50:00,
2013-03-17 21:55:00,59.7,51.0,29.90,NW,315,0.0,0.0,73,0.00,CLR,,0.00,WeatherDisplay:10.37,2013-03-18 01:55:00,
2013-03-17 22:00:00,58.6,50.7,29.90,North,0,0.0,0.0,75,0.00,CLR,,0.00,WeatherDisplay:10.37,2013-03-18 02:00:00,
2013-03-17 22:05:00,58.6,50.7,29.89,North,0,0.0,0.0,75,0.00,CLR,,0.00,WeatherDisplay:10.37,2013-03-18 02:05:00,
2013-03-17 22:10:00,56.8,50.1,29.89,NW,315,0.0,0.0,78,0.00,CLR,,0.00,WeatherDisplay:10.37,2013-03-18 02:10:00,
2013-03-17 22:15:00,55.9,49.5,29.90,NW,315,0.0,0.0,79,0.00,CLR,,0.00,WeatherDisplay:10.37,2013-03-18 02:15:00,
2013-03-17 22:20:00,55.4,49.0,29.90,NW,315,0.0,0.0,79,0.00,CLR,,0.00,WeatherDisplay:10.37,2013-03-18 02:20:00,
2013-03-17 22:25:00,55.0,49.3,29.89,West,270,0.0,0.0,81,0.00,CLR,,0.00,WeatherDisplay:10.37,2013-03-18 02:25:00,
2013-03-17 22:30:00,54.7,49.3,29.89,West,270,0.0,0.0,82,0.00,CLR,,0.00,WeatherDisplay:10.37,2013-03-18 02:30:00,
2013-03-17 22:35:00,54.3,48.9,29.89,West,270,0.0,0.0,82,0.00,CLR,,0.00,WeatherDisplay:10.37,2013-03-18 02:35:00,
2013-03-17 22:40:00,54.0,48.9,29.90,West,270,0.0,0.0,83,0.00,CLR,,0.00,WeatherDisplay:10.37,2013-03-18 02:40:00,
2013-03-17 22:45:00,53.6,48.6,29.90,NW,315,0.0,0.0,83,0.00,CLR,,0.00,WeatherDisplay:10.37,2013-03-18 02:45:00,
2013-03-17 22:50:00,53.4,49.0,29.90,NW,315,0.0,0.0,85,0.00,CLR,,0.00,WeatherDisplay:10.37,2013-03-18 02:50:00,
2013-03-17 22:55:00,53.2,48.8,29.90,West,270,0.0,0.0,85,0.00,CLR,,0.00,WeatherDisplay:10.37,2013-03-18 02:55:00,
2013-03-17 23:00:00,53.2,48.8,29.90,West,270,0.0,0.0,85,0.00,CLR,,0.00,WeatherDisplay:10.37,2013-03-18 03:00:00,
2013-03-17 23:05:00,53.1,49.0,29.91,SE,135,0.0,0.0,86,0.00,CLR,,0.00,WeatherDisplay:10.37,2013-03-18 03:05:00,
2013-03-17 23:10:00,53.1,49.0,29.91,SE,135,0.0,0.0,86,0.00,CLR,,0.00,WeatherDisplay:10.37,2013-03-18 03:10:00,
2013-03-17 23:15:00,52.9,48.8,29.91,NW,315,0.0,0.0,86,0.00,CLR,,0.00,WeatherDisplay:10.37,2013-03-18 03:15:00,
2013-03-17 23:20:00,52.5,48.5,29.91,NW,315,0.0,0.0,86,0.00,CLR,,0.00,WeatherDisplay:10.37,2013-03-18 03:20:00,
2013-03-17 23:25:00,52.3,48.6,29.91,West,270,1.1,0.0,87,0.00,CLR,,0.00,WeatherDisplay:10.37,2013-03-18 03:25:00,
2013-03-17 23:30:00,52.0,48.2,29.91,North,0,0.0,0.0,87,0.00,CLR,,0.00,WeatherDisplay:10.37,2013-03-18 03:30:00,
2013-03-17 23:35:00,52.0,48.5,29.91,North,0,0.0,0.0,88,0.00,CLR,,0.00,WeatherDisplay:10.37,2013-03-18 03:35:00,
2013-03-17 23:40:00,52.0,48.5,29.91,North,0,1.1,0.0,88,0.00,CLR,,0.00,WeatherDisplay:10.37,2013-03-18 03:40:00,
2013-03-17 23:45:00,52.2,49.0,29.91,SW,225,0.0,0.0,89,0.00,CLR,,0.00,WeatherDisplay:10.37,2013-03-18 03:45:00,
2013-03-17 23:50:00,53.1,50.2,29.91,SW,225,0.0,0.0,90,0.00,CLR,,0.00,WeatherDisplay:10.37,2013-03-18 03:50:00,
2013-03-17 23:55:00,54.0,50.8,29.91,SW,225,4.6,4.6,89,0.00,CLR,,0.00,WeatherDisplay:10.37,2013-03-18 03:55:00,